Regional Weather Roundup
Issued by NWS

Home | Current Version | Previous Version | Text Only | Print | Product List | Glossary On
Versions: 1 2 3 4 5 6 7 8 9 10 11 12 13 14 15 16 17 18 19 20 21 22 23 24 25 26 27 28 29 30 31 32 33 34 35 36 37 38 39 40 41 42 43 44 45 46 47 48 49 50
000
ASUS46 KSTO 250815
RWRCA

NORTHERN AND CENTRAL CA REGIONAL WEATHER ROUNDUP
NATIONAL WEATHER SERVICE SACRAMENTO CA
100 AM PDT SAT MAR 25 2017

NOTE: FAIR INDICATES FEW OR NO CLOUDS BELOW 12,000 FEET WITH NO
SIGNIFICANT WEATHER AND/OR OBSTRUCTIONS TO VISIBILITY.

CAZ001-003-250900-
NORTHWEST AREA

CITY           SKY/WX    TMP DP  RH WIND       PRES   REMARKS
CRESCENT CITY  LGT RAIN  49  48  97 VRB3      30.18S
UKIAH          CLEAR     46  44  93 CALM      30.18F
$$

CAZ006-505>513-250900-
BAY AREA

CITY           SKY/WX    TMP DP  RH WIND       PRES   REMARKS
SANTA ROSA     MOCLDY    48  47  96 CALM      30.17S FOG
SAN RAFAEL     N/A       52  MM  MM MISG
NAPA           LGT RAIN  54  51  90 W6        30.17S
CONCORD        MOCLDY    53  52  96 SW5       30.17S
OAKLAND CITY   N/A      MM  MM  MM MISG
OAKLAND        CLOUDY    56  55  97 CALM      30.17F
SAN FRAN CITY  N/A       54  MM  87 MISG
SAN FRAN ARPT  MOCLDY    53  49  86 W5        30.16F
LIVERMORE      MOCLDY    52  50  93 NW3       30.15F
HAYWARD        CLOUDY    55  50  83 CALM      30.16F
REDWOOD CITY   N/A       52  MM  98 MISG
MOFFETT ARPT   MOCLDY    54  53  97 CALM      30.17F
SAN JOSE ARPT  LGT RAIN  54  52  93 CALM      30.16F FOG
$$
CAZ034-037-514>518-250900-
CENTRAL COAST

CITY           SKY/WX    TMP DP  RH WIND       PRES   REMARKS
WATSONVILLE    RAIN      53  53 100 CALM      30.16F FOG
SALINAS        LGT RAIN  55  54  96 SE7       30.14S
MONTEREY       RAIN      55  54  96 CALM      30.15F FOG
SAN LUIS OBISP LGT RAIN  55  51  86 SE6       30.17F FOG
SANTA MARIA    CLOUDY    54  52  93 E6        30.18F
$$
CAZ015-016-250900-
NORTHERN SACRAMENTO VALLEY

CITY           SKY/WX    TMP DP  RH WIND       PRES   REMARKS
REDDING        CLOUDY    51  49  92 SW6       30.17S
RED BLUFF      CLOUDY    51  49  92 CALM      30.19S
OROVILLE       CLOUDY    53  47  79 E7        30.19F
$$
CAZ016>018-250900-
SOUTHERN SACRAMENTO VALLEY

CITY           SKY/WX    TMP DP  RH WIND       PRES   REMARKS
AUBURN         CLOUDY    48  46  93 CALM      30.18F
BEALE AFB      CLOUDY    53  48  84 E7        30.16F
LINCOLN        CLOUDY    52  46  82 CALM      30.16F
MARYSVILLE     CLOUDY    53  48  83 E5        30.18F
SAC INTL ARPT  CLOUDY    52  51  97 E2        30.16F
MATHER AIRPORT NOT AVBL
DOWNTOWN SAC   N/A       53  MM  MM MISG
SAC EXEC ARPT  CLOUDY    53  50  89 CALM      30.17S
VACAVILLE      MOCLDY    54  54 100 CALM      30.17F FOG
TRAVIS AFB     CLOUDY    52  51  97 W5        30.14F FOG
$$
CAZ019>021-250900-
SAN JOAQUIN VALLEY

CITY           SKY/WX    TMP DP  RH WIND       PRES   REMARKS
STOCKTON       CLOUDY    53  52  96 E7        30.15F
MODESTO        CLOUDY    52  49  89 CALM      30.16S
MERCED         CLOUDY    52  49  89 CALM      30.15F
LEMOORE        LGT RAIN  53  50  89 W5        30.16F
FRESNO         LGT RAIN  53  51  93 NW5       30.15F
HANFORD        CLOUDY    53  51  93 W6        30.16S
PORTERVILLE    LGT RAIN  54  52  93 W9        30.17R
BAKERSFIELD    LGT RAIN  56  50  80 SE8       30.16F
$$
CAZ011-012-071-250900-
NORTHERN MOUNTAINS

CITY           SKY/WX    TMP DP  RH WIND       PRES   REMARKS
YREKA          CLEAR     32  31  96 NE5       30.13S WCI  27
MOUNT SHASTA   FOG       35  33  92 CALM      30.12F VSB 3/4
ALTURAS        CLOUDY    38  36  92 CALM      30.12F
$$
CAZ011-012-071-250900-
SIERRA NEVADA MTNS

CITY           SKY/WX    TMP DP  RH WIND       PRES   REMARKS
BLUE CANYON    LGT RAIN  35  35 100 S5        30.15F VSB 1/2 WCI  31
TRUCKEE        CLOUDY    32  32 100 CALM      30.13F
TAHOE VLY ARPT MIX PCPN  33  32  96 CALM      30.12S
MAMMOTH LAKES  CLOUDY    35  29  79 NW5       30.11F WCI  31
$$



USA.gov is the U.S. government's official web portal to all federal, state and local government web resources and services.